N0JVW-13 Weather Reports


time (UTC)temp
C
wind
direction
speed
KPH
gust
KPH
rain 1hr
cm
rain 24hr
cm
rain mn
cm
humidity
%
barometer
mb
20260902193002 36 134 0.0 8.0 0.00 0.00 0.00 44 1011.4
20260902192545 35 205 3.2 8.0 0.00 0.00 0.00 44 1011.4
20260902192024 35 163 0.0 6.4 0.00 0.00 0.00 44 1011.5
20260902191504 35 156 0.0 6.4 0.00 0.00 0.00 44 1011.6
20260902191048 35 135 1.6 6.4 0.00 0.00 0.00 44 1011.6
20260902190528 35 124 0.0 6.4 0.00 0.00 0.00 46 1011.8
20260902190009 35 160 1.6 4.8 0.00 0.00 0.00 46 1011.8
20260902185549 35 161 0.0 6.4 0.00 0.00 0.00 46 1011.8
20260902185033 35 148 0.0 6.4 0.00 0.00 0.00 46 1011.9
20260902184510 35 150 3.2 6.4 0.00 0.00 0.00 46 1011.9
20260902184052 35 134 1.6 6.4 0.00 0.00 0.00 46 1012.0
20260902183532 35 229 0.0 4.8 0.00 0.00 0.00 48 1012.2
20260902183013 35 172 0.0 4.8 0.00 0.00 0.00 48 1012.3
20260902182554 35 214 0.0 4.8 0.00 0.00 0.00 46 1012.3
20260902182037 35 161 0.0 4.8 0.00 0.00 0.00 49 1012.4
20260902181513 35 101 0.0 1.6 0.00 0.00 0.00 49 1012.3
20260902181057 34 101 0.0 1.6 0.00 0.00 0.00 51 1012.3
20260902180537 34 101 0.0 3.2 0.00 0.00 0.00 50 1012.5
20260902180025 34 101 0.0 4.8 0.00 0.00 0.00 49 1012.5
20260902175602 33 101 0.0 4.8 0.00 0.00 0.00 50 1012.6
20260902175040 33 207 0.0 3.2 0.00 0.00 0.00 50 1012.8
20260902174520 33 215 0.0 1.6 0.00 0.00 0.00 50 1012.7
20260902174103 33 215 0.0 1.6 0.00 0.00 0.00 51 1012.8
20260902173543 33 215 0.0 1.6 0.00 0.00 0.00 51 1012.9
20260902173032 33 215 0.0 1.6 0.00 0.00 0.00 52 1012.9
20260902172504 33 215 0.0 1.6 0.00 0.00 0.00 52 1013.0
20260902172045 33 164 0.0 1.6 0.00 0.00 0.00 53 1013.1
20260902171521 33 193 0.0 4.8 0.00 0.00 0.00 53 1013.2
20260902171104 33 193 0.0 4.8 0.00 0.00 0.00 54 1013.2
20260902170545 33 134 0.0 4.8 0.00 0.00 0.00 55 1013.2
20260902170023 32 160 0.0 1.6 0.00 0.00 0.00 55 1013.3
20260902165504 32 148 0.0 8.0 0.00 0.00 0.00 55 1013.4
20260902165049 32 141 1.6 8.0 0.00 0.00 0.00 55 1013.4
20260902164529 32 115 0.0 4.8 0.00 0.00 0.00 56 1013.3
20260902164006 32 178 0.0 4.8 0.00 0.00 0.00 57 1013.5
20260902163552 32 207 0.0 4.8 0.00 0.00 0.00 58 1013.4
20260902163031 32 280 0.0 1.6 0.00 0.00 0.00 56 1013.5
20260902162509 32 281 0.0 4.8 0.00 0.00 0.00 58 1013.5
20260902162054 32 280 0.0 4.8 0.00 0.00 0.00 57 1013.5
20260902161537 31 280 0.0 3.2 0.00 0.00 0.00 55 1013.4
20260902161012 31 279 0.0 3.2 0.00 0.00 0.00 57 1013.5
20260902160555 31 279 0.0 3.2 0.00 0.00 0.00 57 1013.4
20260902160041 31 291 0.0 4.8 0.00 0.00 0.00 57 1013.5
20260902155515 31 291 0.0 3.2 0.00 0.00 0.00 58 1013.5
20260902155058 31 291 0.0 4.8 0.00 0.00 0.00 58 1013.5
20260902154538 31 291 0.0 4.8 0.00 0.00 0.00 58 1013.5
20260902154022 31 235 0.0 4.8 0.00 0.00 0.00 59 1013.4
20260902153600 31 161 0.0 4.8 0.00 0.00 0.00 59 1013.4
20260902153040 30 126 0.0 3.2 0.00 0.00 0.00 62 1013.4
20260902152520 30 306 0.0 3.2 0.00 0.00 0.00 62 1013.4
20260902152103 30 306 0.0 3.2 0.00 0.00 0.00 61 1013.4
20260902151542 30 92 0.0 1.6 0.00 0.00 0.00 62 1013.4
20260902151021 30 92 0.0 4.8 0.00 0.00 0.00 64 1013.4
20260902150501 29 256 0.0 1.6 0.00 0.00 0.00 64 1013.4
20260902150045 29 256 0.0 1.6 0.00 0.00 0.00 64 1013.4
20260902145524 29 278 0.0 3.2 0.00 0.00 0.00 64 1013.4
20260902145006 28 278 0.0 3.2 0.00 0.00 0.00 65 1013.5
20260902144547 28 158 0.0 1.6 0.00 0.00 0.00 66 1013.4
20260902144028 28 127 0.0 1.6 0.00 0.00 0.00 68 1013.5
20260902143506 28 212 0.0 1.6 0.00 0.00 0.00 67 1013.4
20260902143050 28 250 0.0 1.6 0.00 0.00 0.00 68 1013.5
20260902142530 27 110 0.0 1.6 0.00 0.00 0.00 70 1013.6
20260902142009 27 115 0.0 3.2 0.00 0.00 0.00 70 1013.6
20260902141600 27 115 0.0 3.2 0.00 0.00 0.00 70 1013.6
20260902141033 27 122 0.0 1.6 0.00 0.00 0.00 70 1013.6
20260902140511 26 120 0.0 1.6 0.00 0.00 0.00 71 1013.6
20260902140058 26 120 0.0 1.6 0.00 0.00 0.00 71 1013.5
20260902135534 26 148 0.0 1.6 0.00 0.00 0.00 71 1013.5
20260902135015 26 133 0.0 1.6 0.00 0.00 0.00 71 1013.5
20260902134612 26 131 0.0 1.6 0.00 0.00 0.00 71 1013.6
20260902134037 25 160 0.0 1.6 0.00 0.00 0.00 71 1013.6
20260902133521 25 106 0.0 1.6 0.00 0.00 0.00 71 1013.6
20260902133100 25 106 0.0 1.6 0.00 0.00 0.00 71 1013.5
20260902132538 25 168 0.0 3.2 0.00 0.00 0.00 70 1013.5
20260902132018 25 123 0.0 3.2 0.00 0.00 0.00 70 1013.5
20260902131602 25 167 0.0 3.2 0.00 0.00 0.00 70 1013.5
20260902131044 24 159 0.0 3.2 0.00 0.00 0.00 69 1013.5
20260902130515 24 158 0.0 1.6 0.00 0.00 0.00 69 1013.5
20260902125537 24 146 0.0 3.2 0.00 0.00 0.00 69 1013.4
20260902125018 24 160 0.0 3.2 0.00 0.00 0.00 68 1013.4
20260902124600 23 164 0.0 3.2 0.00 0.00 0.00 68 1013.4
20260902124041 23 156 0.0 1.6 0.00 0.00 0.00 68 1013.3
20260902123519 23 155 0.0 1.6 0.00 0.00 0.00 68 1013.4
20260902123103 23 131 0.0 0.0 0.00 0.00 0.00 67 1013.3
20260902122542 23 152 0.0 0.0 0.00 0.00 0.00 67 1013.2
20260902122021 23 142 0.0 0.0 0.00 0.00 0.00 66 1013.2
20260902121604 23 129 0.0 0.0 0.00 0.00 0.00 67 1013.1
20260902121043 23 128 0.0 0.0 0.00 0.00 0.00 68 1013.1
20260902120523 23 128 0.0 0.0 0.00 0.00 0.00 68 1013.0
20260902120002 23 152 0.0 0.0 0.00 0.00 0.00 68 1013.1
20260902115545 23 152 0.0 0.0 0.00 0.00 0.00 69 1013.0
20260902115025 23 159 0.0 0.0 0.00 0.00 0.00 70 1013.0
20260902114504 23 154 0.0 0.0 0.00 0.00 0.00 70 1013.0
20260902114049 23 157 0.0 0.0 0.00 0.00 0.00 71 1012.9
20260902113527 24 148 0.0 0.0 0.00 0.00 0.00 71 1012.9
20260902113013 24 148 0.0 0.0 0.00 0.00 0.00 71 1012.8
20260902112551 24 144 0.0 0.0 0.00 0.00 0.00 71 1012.8
20260902112029 24 144 0.0 0.0 0.00 0.00 0.00 71 1012.7
20260902111509 24 144 0.0 0.0 0.00 0.00 0.00 71 1012.7
20260902111052 24 144 0.0 0.0 0.00 0.00 0.00 71 1012.6
20260902110533 24 144 0.0 0.0 0.00 0.00 0.00 71 1012.7
20260902110011 24 144 0.0 0.0 0.00 0.00 0.00 71 1012.7
20260902105557 24 144 0.0 0.0 0.00 0.00 0.00 72 1012.7
20260902105035 24 144 0.0 0.0 0.00 0.00 0.00 72 1012.7
20260902104518 24 144 0.0 0.0 0.00 0.00 0.00 72 1012.6
20260902104100 24 144 0.0 0.0 0.00 0.00 0.00 72 1012.6
20260902103538 24 144 0.0 0.0 0.00 0.00 0.00 72 1012.6
20260902103015 24 144 0.0 0.0 0.00 0.00 0.00 72 1012.6
20260902102558 24 144 0.0 0.0 0.00 0.00 0.00 72 1012.5
20260902102038 24 144 0.0 0.0 0.00 0.00 0.00 72 1012.4
20260902101516 24 144 0.0 0.0 0.00 0.00 0.00 72 1012.4
20260902101058 24 144 0.0 0.0 0.00 0.00 0.00 71 1012.3
20260902100538 25 144 0.0 0.0 0.00 0.00 0.00 71 1012.3
20260902100018 25 144 0.0 0.0 0.00 0.00 0.00 71 1012.3
20260902095600 25 144 0.0 0.0 0.00 0.00 0.00 71 1012.3
20260902095040 25 144 0.0 0.0 0.00 0.00 0.00 71 1012.3
20260902094520 25 144 0.0 0.0 0.00 0.00 0.00 71 1012.3
20260902094104 25 144 0.0 0.0 0.00 0.00 0.00 71 1012.2
20260902093543 25 144 0.0 0.0 0.00 0.00 0.00 71 1012.2
20260902093022 25 144 0.0 0.0 0.00 0.00 0.00 71 1012.2
20260902092503 25 144 0.0 0.0 0.00 0.00 0.00 71 1012.2
20260902092045 25 144 0.0 0.0 0.00 0.00 0.00 71 1012.2
20260902091525 25 144 0.0 0.0 0.00 0.00 0.00 71 1012.2
20260902091004 25 144 0.0 0.0 0.00 0.00 0.00 71 1012.2
20260902090551 25 144 0.0 0.0 0.00 0.00 0.00 71 1012.2
20260902090028 25 144 0.0 0.0 0.00 0.00 0.00 71 1012.2
20260902085511 25 144 0.0 0.0 0.00 0.00 0.00 71 1012.2
20260902085051 25 144 0.0 0.0 0.00 0.00 0.00 71 1012.1
20260902084531 25 144 0.0 0.0 0.00 0.00 0.00 71 1012.1
20260902084010 25 143 0.0 0.0 0.00 0.00 0.00 70 1012.1
20260902083554 25 148 0.0 0.0 0.00 0.00 0.00 70 1012.1
20260902083035 25 133 0.0 0.0 0.00 0.00 0.00 70 1012.1
20260902082515 25 148 0.0 0.0 0.00 0.00 0.00 70 1012.1
20260902082057 25 148 0.0 0.0 0.00 0.00 0.00 70 1012.1
20260902081536 25 144 0.0 0.0 0.00 0.00 0.00 70 1011.9
20260902081017 25 136 0.0 0.0 0.00 0.00 0.00 70 1011.9
20260902080600 25 136 0.0 0.0 0.00 0.00 0.00 70 1011.9
20260902080040 25 136 0.0 0.0 0.00 0.00 0.00 70 1012.0
20260902075518 25 136 0.0 0.0 0.00 0.00 0.00 70 1011.9
20260902075103 25 136 0.0 0.0 0.00 0.00 0.00 69 1011.9
20260902074557 25 136 0.0 0.0 0.00 0.00 0.00 70 1011.9
20260902074018 25 136 0.0 0.0 0.00 0.00 0.00 70 1011.9
20260902073603 25 136 0.0 0.0 0.00 0.00 0.00 69 1011.9
20260902073041 25 136 0.0 0.0 0.00 0.00 0.00 69 1011.9
20260902072521 26 136 0.0 0.0 0.00 0.00 0.00 69 1011.9
20260902072107 26 136 0.0 0.0 0.00 0.00 0.00 69 1011.9
20260902071544 26 136 0.0 0.0 0.00 0.00 0.00 69 1011.9
20260902071023 26 136 0.0 0.0 0.00 0.00 0.00 68 1011.9
20260902070502 26 136 0.0 0.0 0.00 0.00 0.00 68 1011.9
20260902070046 26 136 0.0 0.0 0.00 0.00 0.00 68 1011.8
20260902065527 26 136 0.0 0.0 0.00 0.00 0.00 68 1011.9
20260902065005 26 136 0.0 0.0 0.00 0.00 0.00 68 1011.9
20260902064550 26 136 0.0 0.0 0.00 0.00 0.00 68 1012.0
20260902064028 26 136 0.0 0.0 0.00 0.00 0.00 68 1012.0
20260902063512 26 136 0.0 0.0 0.00 0.00 0.00 68 1012.0
20260902063112 26 136 0.0 0.0 0.00 0.00 0.00 68 1012.1
20260902062532 26 136 0.0 0.0 0.00 0.00 0.00 68 1012.1
20260902062011 26 136 0.0 0.0 0.00 0.00 0.00 68 1012.1
20260902061556 26 136 0.0 0.0 0.00 0.00 0.00 67 1012.1
20260902061035 26 136 0.0 0.0 0.00 0.00 0.00 67 1012.1
20260902060516 26 136 0.0 0.0 0.00 0.00 0.00 67 1012.0
20260902060108 26 136 0.0 0.0 0.00 0.00 0.00 67 1012.0
20260902055537 26 122 0.0 0.0 0.00 0.00 0.00 67 1012.0
20260902055017 26 122 0.0 0.0 0.00 0.00 0.00 66 1012.0
20260902054610 26 122 0.0 0.0 0.00 0.00 0.00 66 1012.0
20260902054039 26 127 0.0 0.0 0.00 0.00 0.00 66 1012.0
20260902053519 26 127 0.0 0.0 0.00 0.00 0.00 66 1012.0
20260902053104 26 127 0.0 0.0 0.00 0.00 0.00 66 1012.0
20260902052545 26 127 0.0 0.0 0.00 0.00 0.00 67 1012.0
20260902052021 26 127 0.0 0.0 0.00 0.00 0.00 66 1011.9
20260902051502 26 127 0.0 0.0 0.00 0.00 0.00 65 1011.9
20260902051044 27 127 0.0 0.0 0.00 0.00 0.00 65 1011.9
20260902050524 27 127 0.0 0.0 0.00 0.00 0.00 64 1011.8
20260902050004 27 127 0.0 0.0 0.00 0.00 0.00 64 1011.8
20260902045547 27 127 0.0 0.0 0.00 0.00 0.00 64 1011.8
20260902045026 27 127 0.0 0.0 0.00 0.00 0.00 64 1011.9
20260902044512 27 127 0.0 0.0 0.00 0.00 0.00 64 1011.8
20260902044049 27 127 0.0 0.0 0.00 0.00 0.00 63 1011.8
20260902043528 27 127 0.0 0.0 0.00 0.00 0.00 64 1011.9
20260902043007 27 127 0.0 0.0 0.00 0.00 0.00 64 1012.0
20260902042554 27 127 0.0 0.0 0.00 0.00 0.00 63 1012.0
20260902042030 27 127 0.0 0.0 0.00 0.00 0.00 63 1011.9
20260902041509 27 127 0.0 0.0 0.00 0.00 0.00 62 1011.9
20260902041054 27 127 0.0 0.0 0.00 0.00 0.00 62 1011.9
20260902040532 27 127 0.0 0.0 0.00 0.00 0.00 62 1011.9
20260902040025 27 127 0.0 0.0 0.00 0.00 0.00 61 1011.9
20260902035601 28 127 0.0 0.0 0.00 0.00 0.00 61 1011.9
20260902035041 28 127 0.0 0.0 0.00 0.00 0.00 60 1011.9
20260902034521 28 127 0.0 0.0 0.00 0.00 0.00 60 1011.9
20260902034105 28 127 0.0 0.0 0.00 0.00 0.00 59 1011.8
20260902033543 28 127 0.0 0.0 0.00 0.00 0.00 59 1011.8
20260902033023 28 127 0.0 0.0 0.00 0.00 0.00 59 1011.8
20260902032502 28 127 0.0 0.0 0.00 0.00 0.00 58 1011.7
20260902032046 28 127 0.0 0.0 0.00 0.00 0.00 58 1011.7
20260902031525 28 127 0.0 0.0 0.00 0.00 0.00 58 1011.6
20260902031006 28 127 0.0 0.0 0.00 0.00 0.00 58 1011.6
20260902030552 28 127 0.0 0.0 0.00 0.00 0.00 58 1011.6
20260902030029 28 127 0.0 0.0 0.00 0.00 0.00 58 1011.5
20260902025508 28 127 0.0 0.0 0.00 0.00 0.00 58 1011.5
20260902025052 28 127 0.0 0.0 0.00 0.00 0.00 58 1011.5
20260902024531 28 127 0.0 0.0 0.00 0.00 0.00 58 1011.4
20260902024010 28 127 0.0 0.0 0.00 0.00 0.00 58 1011.5
20260902023554 28 127 0.0 0.0 0.00 0.00 0.00 57 1011.4
20260902023034 29 127 0.0 0.0 0.00 0.00 0.00 57 1011.4
20260902022513 29 127 0.0 0.0 0.00 0.00 0.00 57 1011.4
20260902022057 29 127 0.0 0.0 0.00 0.00 0.00 57 1011.3
20260902021538 29 127 0.0 0.0 0.00 0.00 0.00 56 1011.3
20260902021015 29 127 0.0 0.0 0.00 0.00 0.00 56 1011.2
20260902020600 29 127 0.0 0.0 0.00 0.00 0.00 56 1011.2
20260902020038 29 127 0.0 0.0 0.00 0.00 0.00 56 1011.3
20260902015518 29 127 0.0 0.0 0.00 0.00 0.00 56 1011.2
20260902015101 30 127 0.0 0.0 0.00 0.00 0.00 56 1011.2
20260902014549 30 127 0.0 0.0 0.00 0.00 0.00 56 1011.0
20260902014020 30 127 0.0 0.0 0.00 0.00 0.00 55 1011.0
20260902013603 30 127 0.0 0.0 0.00 0.00 0.00 55 1011.0
20260902013052 30 127 0.0 0.0 0.00 0.00 0.00 55 1010.9
20260902012524 30 127 0.0 0.0 0.00 0.00 0.00 55 1010.9
20260902012002 30 127 0.0 0.0 0.00 0.00 0.00 54 1010.9
20260902011545 30 127 0.0 0.0 0.00 0.00 0.00 53 1010.9
20260902011029 31 127 0.0 0.0 0.00 0.00 0.00 53 1010.8
20260902010504 31 127 0.0 0.0 0.00 0.00 0.00 52 1010.8
20260902010052 31 127 0.0 0.0 0.00 0.00 0.00 52 1010.9
20260902005527 31 127 0.0 0.0 0.00 0.00 0.00 51 1010.8
20260902005007 31 127 0.0 0.0 0.00 0.00 0.00 51 1010.8
20260902004557 31 127 0.0 0.0 0.00 0.00 0.00 51 1010.8
20260902004033 31 127 0.0 0.0 0.00 0.00 0.00 49 1010.9
20260902003509 31 127 0.0 0.0 0.00 0.00 0.00 49 1010.9
20260902003127 31 127 0.0 0.0 0.00 0.00 0.00 48 1010.9
20260902002531 32 127 0.0 0.0 0.00 0.00 0.00 48 1010.9
20260902002011 32 127 0.0 0.0 0.00 0.00 0.00 48 1011.0
20260902001555 32 127 0.0 0.0 0.00 0.00 0.00 48 1011.0
20260902001035 32 127 0.0 0.0 0.00 0.00 0.00 47 1011.0
20260902000514 32 127 0.0 0.0 0.00 0.00 0.00 46 1011.1
20260902000100 32 127 0.0 0.0 0.00 0.00 0.00 46 1011.1
20260901235537 33 127 0.0 0.0 0.00 0.00 0.00 46 1011.0
20260901235016 33 127 0.0 0.0 0.00 0.00 0.00 46 1011.0
20260901234559 33 127 0.0 0.0 0.00 0.00 0.00 44 1011.1
20260901234039 33 127 0.0 0.0 0.00 0.00 0.00 44 1011.1
20260901233520 33 127 0.0 0.0 0.00 0.00 0.00 43 1011.2
20260901233102 33 127 0.0 0.0 0.00 0.00 0.00 43 1011.2
20260901232541 33 127 0.0 1.6 0.00 0.00 0.00 42 1011.1
20260901232020 34 127 0.0 1.6 0.00 0.00 0.00 41 1011.0
20260901231605 34 141 0.0 1.6 0.00 0.00 0.00 42 1011.1
20260901231044 34 121 0.0 1.6 0.00 0.00 0.00 41 1011.1
20260901230523 34 143 0.0 1.6 0.00 0.00 0.00 40 1011.1
20260901230007 34 125 0.0 3.2 0.00 0.00 0.00 39 1011.1
20260901225547 34 174 0.0 3.2 0.00 0.00 0.00 39 1011.1
20260901225026 34 124 0.0 4.8 0.00 0.00 0.00 40 1011.0
20260901224509 35 157 0.0 0.0 0.00 0.00 0.00 40 1011.1
20260901224059 35 157 0.0 0.0 0.00 0.00 0.00 39 1011.1
20260901223537 35 157 0.0 3.2 0.00 0.00 0.00 38 1011.1
20260901223018 35 162 0.0 3.2 0.00 0.00 0.00 38 1011.1
20260901222601 35 129 0.0 3.2 0.00 0.00 0.00 38 1011.1
20260901222042 35 180 0.0 4.8 0.00 0.00 0.00 38 1011.2
20260901221525 35 152 1.6 4.8 0.00 0.00 0.00 37 1011.1
20260901221105 35 110 0.0 1.6 0.00 0.00 0.00 39 1011.1
20260901220553 35 159 0.0 3.2 0.00 0.00 0.00 39 1011.1
20260901220038 35 159 0.0 4.8 0.00 0.00 0.00 37 1011.1
20260901215511 35 120 0.0 6.4 0.00 0.00 0.00 36 1011.1
20260901215053 35 173 0.0 6.4 0.00 0.00 0.00 37 1011.2
20260901214535 35 165 1.6 4.8 0.00 0.00 0.00 36 1011.1
20260901214012 35 118 1.6 4.8 0.00 0.00 0.00 37 1011.2
20260901213600 35 177 0.0 4.8 0.00 0.00 0.00 37 1011.3
20260901213037 35 115 0.0 4.8 0.00 0.00 0.00 36 1011.3
20260901212514 35 192 0.0 3.2 0.00 0.00 0.00 36 1011.4
20260901212058 35 141 0.0 3.2 0.00 0.00 0.00 37 1011.4
20260901211538 35 113 0.0 6.4 0.00 0.00 0.00 36 1011.4
20260901211017 35 151 0.0 6.4 0.00 0.00 0.00 35 1011.6
20260901210606 35 162 1.6 6.4 0.00 0.00 0.00 35 1011.5
20260901210052 35 141 1.6 6.4 0.00 0.00 0.00 36 1011.5
20260901205520 35 149 1.6 4.8 0.00 0.00 0.00 37 1011.6
20260901205102 35 149 0.0 3.2 0.00 0.00 0.00 36 1011.7
20260901204542 36 160 0.0 4.8 0.00 0.00 0.00 37 1011.7
20260901204021 36 154 1.6 4.8 0.00 0.00 0.00 37 1011.8
20260901203501 36 129 0.0 4.8 0.00 0.00 0.00 37 1011.9
20260901203045 36 262 0.0 4.8 0.00 0.00 0.00 35 1012.0
20260901202523 36 262 0.0 4.8 0.00 0.00 0.00 34 1012.0
20260901202007 36 128 0.0 8.0 0.00 0.00 0.00 37 1012.1
20260901201546 36 128 1.6 8.0 0.00 0.00 0.00 34 1012.1
20260901201027 36 158 0.0 6.4 0.00 0.00 0.00 36 1012.1
20260901200506 36 122 0.0 6.4 0.00 0.00 0.00 35 1012.2
20260901200050 36 160 1.6 4.8 0.00 0.00 0.00 35 1012.2
20260901195529 36 130 0.0 4.8 0.00 0.00 0.00 36 1012.2
20260901195008 36 115 0.0 8.0 0.00 0.00 0.00 35 1012.4
20260901194602 36 139 0.0 8.0 0.00 0.00 0.00 35 1012.4
20260901194038 36 102 1.6 4.8 0.00 0.00 0.00 36 1012.5
20260901193510 36 102 0.0 4.8 0.00 0.00 0.00 36 1012.5
20260901193103 36 102 0.0 4.8 0.00 0.00 0.00 37 1012.5